Location: Artiguedieu
(43.5000°N, 0.5454°E)
Time: 13:06:39
(UTC+00:00)

Cosmos 372 Rocket - Pass Details

Date: 06 December 2020
Orbit: 737 x 769 km, 74.1° (Epoch: 27 January)

Event Time Altitude Azimuth Distance (km) Brightness Sun altitude
Exits shadow 04:49:25 76° 205° (SSW) 765 3.8 -25.8°
Maximum altitude 04:49:50 89° 286° (WNW) 744 3.8 -25.8°
Drops below altitude 10° 04:54:57 10° 20° (NNE) 2,259 6.5 -24.8°
Sets 04:57:19 0° 21° (NNE) 3,190 7.4 -24.4°
